This is the latest recevied weather packets stored in our database for station/object E25XKG-15. If no packets are shown the sender has not sent any weather packets the latest 10 day(s).
| Time | Temp. | Humidity | Pressure | Rain* | Wind** | Luminosity | Snow |
|---|---|---|---|---|---|---|---|
| 1777130462 | 32.22° C | 53% | 1006.1 hPa | - | - | - | - |
| 1777130161 | 32.22° C | 51% | 1006 hPa | - | - | - | - |
| 1777129860 | 32.22° C | 53% | 1006.2 hPa | - | - | - | - |
| 1777129559 | 32.78° C | 53% | 1006.2 hPa | - | - | - | - |
| 1777129258 | 32.78° C | 52% | 1006.1 hPa | - | - | - | - |
| 1777128957 | 32.78° C | 50% | 1006.1 hPa | - | - | - | - |
| 1777128656 | 32.78° C | 50% | 1006 hPa | - | - | - | - |
| 1777128355 | 32.78° C | 49% | 1006 hPa | - | - | - | - |
| 1777128054 | 32.78° C | 50% | 1005.8 hPa | - | - | - | - |
| 1777127753 | 32.78° C | 53% | 1005.4 hPa | - | - | - | - |
| 1777127452 | 32.78° C | 50% | 1005.5 hPa | - | - | - | - |
| 1777127151 | 32.78° C | 51% | 1005.3 hPa | - | - | - | - |
| 1777126850 | 32.78° C | 50% | 1005.3 hPa | - | - | - | - |
| 1777126549 | 32.78° C | 51% | 1005.4 hPa | - | - | - | - |
| 1777126248 | 32.78° C | 52% | 1005.2 hPa | - | - | - | - |
| 1777125947 | 32.78° C | 52% | 1005.2 hPa | - | - | - | - |
| 1777125646 | 32.78° C | 52% | 1005.2 hPa | - | - | - | - |
| 1777125345 | 32.78° C | 51% | 1005.2 hPa | - | - | - | - |
| 1777125044 | 32.78° C | 50% | 1005.1 hPa | - | - | - | - |
| 1777124743 | 32.78° C | 52% | 1005.2 hPa | - | - | - | - |
| 1777124442 | 32.78° C | 51% | 1005.3 hPa | - | - | - | - |
| 1777124136 | 32.78° C | 50% | 1005.1 hPa | - | - | - | - |
| 1777123835 | 32.78° C | 52% | 1005.1 hPa | - | - | - | - |
| 1777123534 | 32.78° C | 52% | 1005 hPa | - | - | - | - |
| 1777123233 | 32.78° C | 50% | 1004.7 hPa | - | - | - | - |
* Rain since midnight (hover to see other rain measurements)
** Current wind speed in m/s (hover to see current wind gust speed)